Hourly Weather Luhy

Today, 7 May, Friday

Time Temperature Precipitation Wind Pressure Humidity
00:00 +5°C° 0 mm 1 mps 675 mmHg 95%
01:00 +3°C° 0 mm 2 mps 674 mmHg 93%
02:00 +3°C° 0 mm 1 mps 673 mmHg 97%
03:00 +4°C° 0 mm 1 mps 673 mmHg 94%
04:00 +3°C° 0 mm 2 mps 672 mmHg 94%
05:00 +3°C° 0 mm 2 mps 672 mmHg 97%
06:00 +3°C° 0 mm 3 mps 672 mmHg 97%
07:00 +3°C° 0.1 mm 5 mps 673 mmHg 100%
08:00 +4°C° 0.4 mm 6 mps 672 mmHg 100%
09:00 +4°C° 0.6 mm 6 mps 672 mmHg 100%
10:00 +5°C° 1.7 mm 6 mps 673 mmHg 100%
11:00 +6°C° 2.3 mm 5 mps 672 mmHg 100%
12:00 +7°C° 2 mm 5 mps 672 mmHg 100%
13:00 +8°C° 1.4 mm 6 mps 672 mmHg 100%
14:00 +8°C° 1.1 mm 5 mps 672 mmHg 100%
15:00 +8°C° 1.9 mm 5 mps 671 mmHg 100%
16:00 +8°C° 2.8 mm 4 mps 671 mmHg 100%
17:00 +7°C° 1.9 mm 4 mps 671 mmHg 100%
18:00 +8°C° 0 mm 3 mps 670 mmHg 100%
19:00 +7°C° 0.1 mm 3 mps 671 mmHg 100%
20:00 +6°C° 1.6 mm 2 mps 671 mmHg 100%
21:00 +6°C° 0.1 mm 2 mps 671 mmHg 100%
22:00 +5°C° 0 mm 4 mps 671 mmHg 100%
23:00 +5°C° 0.2 mm 3 mps 672 mmHg 100%

Tomorrow, 8 May, Saturday

Time Temperature Precipitation Wind Pressure Humidity
00:00 +6°C° 0.1 mm 2 mps 672 mmHg 100%
01:00 +5°C° 0.2 mm 2 mps 671 mmHg 100%
02:00 +5°C° 0.4 mm 3 mps 672 mmHg 100%
03:00 +4°C° 0.5 mm 4 mps 672 mmHg 100%
04:00 +4°C° 0.7 mm 2 mps 673 mmHg 100%
05:00 +4°C° 0 mm 2 mps 673 mmHg 93%
06:00 +3°C° 0 mm 2 mps 673 mmHg 89%
07:00 +4°C° 0 mm 2 mps 675 mmHg 83%
08:00 +3°C° 0 mm 3 mps 675 mmHg 82%
09:00 +5°C° 0 mm 2 mps 676 mmHg 85%
10:00 +5°C° 0 mm 3 mps 677 mmHg 87%
11:00 +5°C° 0 mm 5 mps 677 mmHg 85%
12:00 +5°C° 0.4 mm 5 mps 678 mmHg 100%
13:00 +5°C° 0.1 mm 6 mps 678 mmHg 95%
14:00 +6°C° 0.3 mm 4 mps 678 mmHg 100%
15:00 +4°C° 1.8 mm 6 mps 678 mmHg 100%
16:00 +4°C° 1.5 mm 4 mps 678 mmHg 100%
17:00 +4°C° 0.2 mm 6 mps 678 mmHg 100%
18:00 +3°C° 0 mm 5 mps 678 mmHg 100%
19:00 +2°C° 1.1 mm 3 mps 678 mmHg 100%
20:00 +3°C° 0.2 mm 2 mps 679 mmHg 100%
21:00 +3°C° 0 mm 2 mps 679 mmHg 100%
22:00 +3°C° 0 mm 0 mps 679 mmHg 100%
23:00 +4°C° 0 mm 1 mps 680 mmHg 100%

Day after tomorrow, 9 May, Sunday

Time Temperature Precipitation Wind Pressure Humidity
00:00 +2°C° 0 mm 0 mps 680 mmHg 100%
01:00 +2°C° 0 mm 0 mps 680 mmHg 100%
02:00 +3°C° 0 mm 1 mps 681 mmHg 100%
03:00 +2°C° 0 mm 0 mps 681 mmHg 100%
04:00 +1°C° 0 mm 0 mps 681 mmHg 100%
05:00 +1°C° 0 mm 0 mps 681 mmHg 100%
06:00 +3°C° 0 mm 1 mps 681 mmHg 100%
07:00 +3°C° 0 mm 0 mps 682 mmHg 96%
08:00 +5°C° 0 mm 0 mps 683 mmHg 86%
09:00 +7°C° 0 mm 1 mps 683 mmHg 80%
10:00 +8°C° 0 mm 2 mps 684 mmHg 76%
11:00 +9°C° 0 mm 3 mps 685 mmHg 81%
12:00 +9°C° 0 mm 3 mps 685 mmHg 87%
13:00 +10°C° 0 mm 3 mps 685 mmHg 86%
14:00 +10°C° 0 mm 3 mps 685 mmHg 80%
15:00 +10°C° 0 mm 3 mps 685 mmHg 81%
16:00 +10°C° 0.1 mm 2 mps 685 mmHg 92%
17:00 +10°C° 0.1 mm 2 mps 684 mmHg 95%
18:00 +10°C° 0.1 mm 2 mps 684 mmHg 96%
19:00 +9°C° 0 mm 2 mps 684 mmHg 95%
20:00 +9°C° 0 mm 0 mps 684 mmHg 98%
21:00 +9°C° 0 mm 1 mps 684 mmHg 97%
22:00 +9°C° 0 mm 1 mps 683 mmHg 94%
23:00 +9°C° 0 mm 1 mps 684 mmHg 86%

10 May, Monday

Time Temperature Precipitation Wind Pressure Humidity
00:00 +8°C° 0 mm 1 mps 683 mmHg 71%
01:00 +7°C° 0 mm 2 mps 683 mmHg 62%
02:00 +7°C° 0 mm 2 mps 683 mmHg 67%
03:00 +7°C° 0 mm 2 mps 683 mmHg 77%
04:00 +6°C° 0 mm 2 mps 683 mmHg 91%
05:00 +6°C° 0 mm 2 mps 683 mmHg 100%
06:00 +5°C° 0 mm 3 mps 683 mmHg 100%
07:00 +7°C° 0 mm 2 mps 683 mmHg 100%
08:00 +10°C° 0 mm 1 mps 684 mmHg 97%
09:00 +12°C° 0 mm 1 mps 684 mmHg 93%
10:00 +13°C° 0 mm 1 mps 685 mmHg 91%
11:00 +14°C° 0 mm 2 mps 685 mmHg 87%
12:00 +15°C° 0 mm 2 mps 685 mmHg 85%
13:00 +16°C° 0 mm 3 mps 685 mmHg 85%
14:00 +16°C° 0 mm 3 mps 685 mmHg 87%
15:00 +16°C° 0 mm 3 mps 685 mmHg 87%
16:00 +16°C° 0 mm 3 mps 685 mmHg 88%
17:00 +16°C° 0 mm 2 mps 685 mmHg 87%
18:00 +15°C° 0 mm 2 mps 685 mmHg 90%
19:00 +14°C° 0 mm 1 mps 684 mmHg 94%
20:00 +13°C° 0 mm 0 mps 684 mmHg 93%
21:00 +13°C° 0 mm 1 mps 684 mmHg 93%
22:00 +13°C° 0 mm 1 mps 684 mmHg 89%
23:00 +12°C° 0 mm 1 mps 684 mmHg 87%

11 May, Tuesday

Time Temperature Precipitation Wind Pressure Humidity
00:00 +12°C° 0 mm 2 mps 684 mmHg 88%
01:00 +12°C° 0 mm 2 mps 683 mmHg 91%
02:00 +11°C° 0 mm 1 mps 683 mmHg 95%
03:00 +11°C° 0 mm 1 mps 683 mmHg 98%
04:00 +10°C° 0 mm 1 mps 683 mmHg 100%
05:00 +8°C° 0 mm 2 mps 682 mmHg 100%
06:00 +8°C° 0 mm 2 mps 682 mmHg 100%
07:00 +9°C° 0 mm 2 mps 683 mmHg 100%
08:00 +12°C° 0 mm 1 mps 683 mmHg 100%
09:00 +14°C° 0 mm 1 mps 683 mmHg 96%
10:00 +15°C° 0 mm 1 mps 684 mmHg 95%
11:00 +16°C° 0 mm 1 mps 684 mmHg 91%
12:00 +18°C° 0 mm 1 mps 684 mmHg 87%
13:00 +18°C° 0 mm 1 mps 684 mmHg 86%
14:00 +17°C° 0 mm 2 mps 684 mmHg 89%
15:00 +17°C° 0 mm 3 mps 683 mmHg 97%
16:00 +16°C° 0 mm 3 mps 683 mmHg 100%
17:00 +16°C° 0 mm 2 mps 682 mmHg 100%
18:00 +15°C° 0 mm 2 mps 682 mmHg 100%
19:00 +15°C° 0 mm 1 mps 682 mmHg 100%
20:00 +14°C° 0 mm 0 mps 681 mmHg 100%
21:00 +13°C° 0 mm 0 mps 681 mmHg 100%
22:00 +14°C° 0 mm 1 mps 681 mmHg 100%
23:00 +13°C° 0 mm 1 mps 681 mmHg 100%

12 May, Wednesday

Time Temperature Precipitation Wind Pressure Humidity
00:00 +12°C° 0 mm 2 mps 680 mmHg 100%
01:00 +12°C° 0 mm 2 mps 680 mmHg 100%
02:00 +10°C° 0 mm 2 mps 679 mmHg 100%
03:00 +10°C° 0 mm 1 mps 678 mmHg 100%
04:00 +10°C° 0 mm 1 mps 678 mmHg 100%
05:00 +9°C° 0 mm 1 mps 678 mmHg 100%
06:00 +10°C° 0 mm 1 mps 678 mmHg 95%
07:00 +10°C° 0 mm 2 mps 678 mmHg 92%
08:00 +12°C° 0 mm 2 mps 678 mmHg 89%
09:00 +13°C° 0 mm 1 mps 678 mmHg 88%
10:00 +15°C° 0 mm 2 mps 678 mmHg 85%
11:00 +16°C° 0 mm 3 mps 678 mmHg 84%
12:00 +17°C° 0 mm 3 mps 678 mmHg 82%
13:00 +17°C° 0 mm 3 mps 678 mmHg 85%
14:00 +18°C° 0 mm 3 mps 678 mmHg 85%
15:00 +17°C° 0 mm 3 mps 677 mmHg 85%
16:00 +17°C° 0 mm 3 mps 677 mmHg 85%
17:00 +16°C° 1 mm 3 mps 676 mmHg 100%
18:00 +15°C° 3.4 mm 4 mps 675 mmHg 97%
19:00 +14°C° 0 mm 4 mps 675 mmHg 98%
20:00 +13°C° 0 mm 4 mps 674 mmHg 97%
21:00 +12°C° 0 mm 4 mps 674 mmHg 100%
22:00 +11°C° 0 mm 4 mps 674 mmHg 99%
23:00 +10°C° 0 mm 4 mps 674 mmHg 97%
Show more

We Need Your Consent

Meteoprog and our Service Providers may store and access personal data such as cookies, device identifiers or other similar technologies on your device and process such data to personalise content and ads, as well as provide social media features and to analyse the traffic.

  • Store and/or access information on your device

    Cookies, device identifiers or other information can be stored or accessed on your device for the purposes indicated above.

  • Personalised ads and content, ad and content measurement, audience insights, and products development

    Ads and content can be personalised based on a profile. More data can be added to better personalise ads and content. Ad and content performance can be measured. Insights about the audience who saw the ads and content can be derived. Such data can be used to develop or improve user’s experience, systems and software.

By clicking ‘I Agree’ you will allow the use of indicated cookies, device identifiers, web beacons or other similar technologies. Your settings can be changed in the browser on your device.

For certain purposes, legitimate interests may be relied on, rather than consent. You can read more about this in our Privacy and Cookie Policy.